Location: Drummondville
(45.8830°N, 72.4830°W)
Time: 05:21:57
(UTC-04:00)

OTV 5 (USA 277) - Visible Passes

Search period start: 24 June 2018 00:00
Search period end: 04 July 2018 00:00
Orbit: 313 x 320 km, 54.5° (Epoch: 21 June)

Date Brightness Start Highest point End Pass type
(mag) Time Alt. Az. Time Alt. Az. Time Alt. Az.
24 Jun ? 00:13:58 10° NW 00:16:25 29° NNE 00:16:52 27° NE visible
24 Jun ? 21:19:28 10° NW 21:21:05 14° N 21:22:43 10° NNE visible
24 Jun ? 22:54:22 10° NNW 22:56:13 16° NNE 22:58:02 10° NE visible
25 Jun ? 00:28:15 10° NW 00:30:05 36° NNW 00:30:05 36° NNW visible
25 Jun ? 21:34:23 10° NNW 21:35:51 13° N 21:37:18 10° NNE visible
25 Jun ? 23:08:37 10° NW 23:10:53 23° NNE 23:12:34 14° ENE visible
26 Jun ? 00:42:42 10° WNW 00:43:23 16° WNW 00:43:23 16° WNW visible
26 Jun ? 21:48:58 10° NNW 21:50:36 15° N 21:52:15 10° NE visible
26 Jun ? 23:22:52 10° NW 23:25:28 40° NNE 23:25:57 35° ENE visible
27 Jun ? 22:03:16 10° NNW 22:05:19 19° NNE 22:07:21 10° ENE visible
27 Jun ? 23:37:13 10° NW 23:39:24 53° WNW 23:39:24 53° WNW visible
28 Jun ? 22:17:31 10° NW 22:19:57 29° NNE 22:22:03 12° E visible
28 Jun ? 23:51:48 10° WNW 23:52:54 19° W 23:52:54 19° W visible
29 Jun ? 22:31:48 10° NW 22:34:28 59° NNE 22:35:36 29° ESE visible
30 Jun ? 22:46:13 10° WNW 22:48:53 52° SW 22:49:12 48° S visible
01 Jul ? 21:26:25 10° NW 21:29:00 39° NNE 21:31:34 10° E visible
01 Jul ? 23:01:02 10° W 23:02:51 20° SW 23:02:51 20° SW visible
02 Jul ? 21:40:45 10° NW 21:43:27 88° SW 21:45:42 14° SE visible
03 Jul ? 21:55:20 10° WNW 21:57:48 32° SW 21:59:27 17° SSE visible
